Theta_e
349 349 349 349 350 351 351 352 351 352 352 351 351 351 351 351 351 351 350 348 347 346 345 345 345 345 346 346 346 345 346 346 347 349 350 349 348 348 348 348 348 348 347 347 346 346 346 346 347 347 346 346 346 346 345 347 348 348 349 349 347 347 346 346 347 348 349 350 350 350 350 350 350 349 347 343 340 339 339 338 336 334 332 330 329
349 350 350 350 351 351 351 351 351 352 352 351 352 351 351 352 351 351 351 349 348 347 346 345 345 345 346 346 347 346 345 345 345 347 347 347 347 347 348 348 348 348 347 348 347 345 344 345 345 345 345 345 345 345 345 346 347 349 349 350 349 349 348 347 346 347 349 350 350 350 350 350 349 348 347 345 342 339 339 338 337 335 333 331 328
350 350 351 351 351 351 351 351 351 352 352 352 352 352 352 352 352 352 352 351 350 349 348 346 345 345 345 346 346 346 346 345 345 345 345 346 347 347 348 348 348 349 349 349 348 347 345 344 344 344 344 345 344 344 346 346 347 349 349 350 350 350 349 348 347 346 348 349 350 350 350 349 348 348 346 345 343 339 338 339 337 335 334 330 327
351 351 351 351 352 351 351 352 352 352 353 353 353 353 353 352 352 352 351 351 351 350 349 348 347 345 346 346 346 346 346 345 345 345 345 346 347 348 348 348 347 348 348 348 348 348 347 346 345 345 344 345 345 345 346 346 346 347 349 351 351 351 351 350 349 347 347 349 349 349 350 349 348 347 345 344 342 340 339 339 337 336 334 330 326
350 351 352 352 352 351 352 352 351 352 352 353 353 353 353 353 352 351 351 351 351 350 349 349 347 346 346 346 347 346 346 346 346 346 346 347 348 348 348 348 347 347 347 347 347 347 348 348 346 346 346 346 346 347 346 346 346 347 349 350 350 351 351 351 350 349 347 347 348 348 349 349 347 346 345 343 341 339 338 338 337 335 332 329 326
350 351 352 352 352 352 351 352 352 352 353 353 353 353 353 353 352 351 351 350 351 350 349 349 347 347 347 346 347 346 347 347 347 347 347 348 348 347 346 346 346 346 345 346 346 346 347 347 346 346 346 346 347 347 346 346 346 347 349 350 350 351 351 351 351 350 348 348 348 348 348 348 347 344 343 343 342 339 337 335 335 334 331 328 326
348 351 353 353 352 352 352 352 353 352 352 353 353 354 354 353 353 353 352 352 352 351 350 349 348 348 347 346 346 346 346 347 347 347 347 347 346 345 344 345 345 345 345 345 345 346 346 347 346 346 346 347 347 346 347 347 347 347 348 348 350 350 351 351 352 351 349 348 348 347 347 346 345 343 341 341 340 339 336 334 331 331 329 327 326
349 352 353 352 352 352 352 353 353 353 353 353 354 355 355 353 352 352 352 352 352 352 350 349 349 348 348 346 347 346 346 347 346 346 346 345 345 344 345 344 344 344 345 344 345 345 346 346 346 346 346 347 346 347 347 347 347 347 347 348 349 351 351 351 352 351 350 349 348 346 345 344 343 341 339 337 336 335 335 334 332 330 328 327 326
351 352 352 352 353 353 353 354 354 354 354 353 354 354 353 351 351 350 349 349 349 350 350 349 349 348 348 348 347 347 347 347 346 346 346 346 345 345 345 344 344 344 344 345 345 345 345 345 346 345 346 347 346 346 346 346 347 348 347 348 348 349 351 351 352 351 349 349 348 346 344 342 341 339 337 336 336 335 334 333 332 329 327 325 325
353 353 353 353 353 354 354 355 355 355 354 353 353 352 351 351 351 351 351 350 349 348 348 348 349 348 349 348 347 347 347 347 347 347 346 346 345 345 345 344 344 344 344 344 345 346 345 346 346 346 346 347 347 346 346 346 346 347 347 348 348 349 350 351 351 351 350 348 347 345 344 342 340 339 338 337 337 337 334 331 330 328 325 324 323
355 354 354 354 354 355 355 355 355 354 353 353 352 351 351 350 350 351 351 350 350 350 348 347 346 347 348 348 348 348 348 347 348 347 346 346 346 345 345 345 344 343 344 343 344 345 345 346 346 347 347 347 346 346 345 346 346 346 347 347 348 349 349 350 351 351 350 349 348 346 344 343 341 340 340 339 336 335 334 331 329 326 323 322 321
354 353 355 354 354 355 354 354 353 352 352 352 351 351 351 350 349 349 351 350 349 349 349 347 345 345 347 349 349 349 349 348 348 347 347 347 346 346 345 345 345 345 344 344 343 343 344 344 345 345 346 346 346 345 345 346 347 347 347 348 349 349 349 349 350 351 349 348 346 344 343 344 343 341 341 340 337 335 333 330 328 326 324 324 322
352 352 352 352 352 353 351 350 349 349 351 350 349 349 349 348 348 348 349 350 348 348 348 347 347 347 348 349 349 348 348 348 347 347 346 346 346 346 345 346 346 345 345 344 344 344 344 344 344 345 345 345 345 346 346 346 346 347 349 352 353 353 352 351 350 350 350 347 345 343 344 344 344 343 344 343 339 335 332 329 328 326 325 326 325
350 350 351 351 350 349 347 347 348 348 349 348 348 348 348 347 348 348 349 350 349 349 349 347 348 348 349 348 348 348 348 349 350 349 347 347 346 346 345 346 346 346 345 344 344 344 344 343 343 343 343 344 346 346 345 345 346 348 349 353 355 355 356 355 354 352 351 349 347 347 346 346 345 346 346 343 339 337 334 331 330 328 327 327 326
351 351 352 351 350 348 347 347 348 348 350 350 349 348 347 347 348 349 349 349 349 349 348 348 348 348 348 348 349 349 350 351 352 351 351 350 349 348 348 348 348 347 347 347 346 345 345 344 343 344 344 344 344 344 345 345 347 348 349 351 353 354 354 354 354 354 353 351 350 349 348 348 346 347 345 342 340 339 337 335 334 331 328 325 323
350 351 351 350 348 348 347 347 348 349 350 350 349 346 346 347 348 349 349 348 349 349 349 349 349 348 348 349 349 350 351 351 350 350 352 352 352 352 351 351 351 350 349 349 347 346 345 344 344 344 344 344 344 345 346 347 348 349 350 351 350 350 350 348 349 352 354 354 352 351 351 350 348 346 347 345 342 340 337 334 331 329 326 323 320
349 351 351 349 348 348 347 347 348 349 349 350 349 348 348 349 350 349 349 349 349 349 349 349 349 348 348 347 348 349 351 350 349 350 351 352 352 351 351 351 351 351 350 350 349 348 347 346 345 345 345 345 345 344 345 347 348 348 349 350 349 348 349 348 348 349 350 352 354 353 353 351 349 347 347 347 344 341 336 332 330 327 325 324 321
350 352 351 349 348 348 348 347 348 349 350 350 350 350 349 351 351 349 348 347 347 347 347 347 347 347 347 346 347 348 349 350 349 350 350 350 350 351 350 350 350 350 350 350 350 350 350 350 349 349 349 348 347 346 345 347 348 348 347 348 349 349 349 348 348 348 348 349 352 353 352 352 351 349 348 347 345 342 338 335 332 328 325 325 324
351 352 351 350 348 347 348 349 350 349 350 350 350 351 351 351 350 347 346 346 346 346 347 347 347 347 347 348 348 348 348 349 348 349 350 349 349 349 349 349 350 349 350 350 350 350 350 350 350 351 351 350 349 348 349 349 349 348 348 349 349 349 350 349 348 348 348 348 349 350 350 350 351 350 349 347 345 343 342 339 335 330 328 327 325
353 352 350 347 345 347 349 350 351 351 350 349 350 350 349 348 348 347 347 347 347 347 347 347 347 348 348 349 348 348 347 346 346 347 347 347 347 348 348 349 349 349 349 349 349 349 349 349 350 349 349 349 349 350 350 349 350 349 348 348 348 348 349 349 349 349 348 349 348 349 349 350 350 349 349 347 344 343 343 340 336 333 332 329 326
353 352 349 346 345 348 349 350 350 351 350 349 349 349 349 348 348 348 348 348 347 346 345 345 345 345 344 345 344 344 345 344 345 345 346 347 348 347 346 346 347 347 347 346 346 347 347 347 347 347 347 348 348 348 348 348 348 348 347 347 347 349 349 348 349 349 349 349 349 350 350 350 349 349 349 347 345 344 342 340 338 336 335 332 329
353 352 351 349 350 351 350 349 350 350 349 349 349 349 348 348 347 347 347 347 345 344 342 341 341 340 340 340 341 342 343 344 345 345 345 346 346 344 343 342 342 342 342 342 342 342 342 343 343 344 345 346 346 346 346 345 346 346 347 347 347 347 348 347 347 347 347 348 349 349 350 350 349 349 348 347 345 344 342 341 338 337 337 336 334
353 352 351 351 351 351 349 348 349 349 348 349 348 348 347 346 346 345 344 343 342 340 339 339 339 339 338 338 339 341 343 344 345 345 345 345 344 343 341 341 339 338 338 337 336 336 335 337 338 339 340 341 342 343 343 343 344 344 345 346 346 346 346 345 345 344 344 344 345 346 347 348 348 348 347 347 346 345 344 342 340 339 338 337 336
353 353 351 351 351 348 346 345 345 345 345 345 345 345 344 344 343 342 341 340 339 339 339 339 339 338 337 335 336 339 342 343 344 345 345 343 343 342 341 340 338 336 336 335 333 331 330 330 331 332 333 335 336 337 339 340 341 341 342 342 343 344 344 343 343 342 340 340 341 342 344 344 345 346 345 345 346 345 344 343 342 341 339 337 334
353 352 349 349 348 345 343 343 343 343 344 343 343 342 342 342 341 341 340 339 339 339 339 339 339 337 334 333 335 338 341 342 342 343 343 342 343 342 339 336 335 334 335 334 331 328 328 328 328 328 329 330 332 333 335 336 337 338 339 339 338 339 339 338 339 338 337 337 338 339 341 341 343 343 343 343 344 343 342 341 341 340 338 335 333
350 349 347 346 344 344 344 344 344 344 344 344 343 343 342 342 342 342 342 341 340 340 340 340 339 335 333 333 334 337 340 340 340 340 339 340 339 337 334 332 332 333 333 331 328 328 328 329 329 329 329 329 329 330 331 332 333 334 334 334 334 334 334 334 334 334 334 335 336 338 339 339 340 341 341 341 340 340 339 339 339 337 335 333 331
349 347 345 344 344 344 345 344 344 344 343 343 343 342 342 343 342 343 343 342 341 341 340 339 336 333 333 333 334 336 337 337 336 336 335 334 334 332 332 332 331 331 329 328 327 328 329 329 328 328 328 328 328 328 328 329 330 330 330 330 330 330 330 330 331 331 331 332 333 334 335 337 336 336 336 336 337 337 338 337 336 334 333 332 329
348 346 345 344 345 345 345 344 344 343 343 343 342 342 342 342 342 341 341 341 341 340 338 336 334 333 333 333 333 334 335 335 334 333 331 331 330 330 330 330 329 328 327 327 327 328 328 328 327 327 327 327 327 327 327 327 327 327 327 327 327 327 327 328 329 329 330 329 330 331 332 333 333 333 332 332 332 333 333 334 333 330 329 328 325
347 346 345 345 345 344 344 344 343 343 342 342 342 341 341 341 341 340 340 339 339 337 335 334 334 333 332 332 332 333 333 333 332 331 330 330 329 328 327 326 326 327 327 326 326 327 327 326 326 326 326 326 325 324 325 325 325 325 325 325 325 325 325 325 325 326 326 326 327 327 328 328 328 327 327 327 327 327 328 329 328 327 325 324 322
346 345 345 345 343 344 344 344 343 343 342 341 340 340 340 340 339 339 339 338 336 335 335 335 335 334 333 332 331 331 331 332 331 330 330 329 328 328 327 326 326 326 326 325 326 326 325 325 325 325 324 323 322 322 322 322 323 324 324 324 324 323 323 323 323 323 323 323 324 324 324 324 323 323 323 323 323 323 324 325 325 324 324 323 320
346 345 345 343 343 343 343 343 342 341 341 340 339 339 339 338 338 337 336 335 334 334 335 336 337 336 335 333 331 330 330 331 330 330 329 328 329 329 328 326 326 326 325 325 325 324 324 324 324 323 323 322 321 321 321 321 321 322 323 323 321 321 321 321 321 321 321 322 322 321 321 321 321 321 320 321 321 321 321 322 322 322 322 321 319
346 345 344 343 342 342 342 342 341 340 339 339 338 337 337 336 336 335 334 334 334 335 336 337 337 337 336 334 332 331 331 331 331 331 329 328 329 329 327 326 326 325 324 324 323 323 323 323 323 323 322 321 320 320 320 321 321 321 322 321 320 319 319 319 319 320 320 320 320 320 320 319 319 319 319 318 318 319 319 320 320 320 320 320 319
346 345 344 342 341 341 341 341 341 340 339 338 337 336 335 335 335 336 336 336 337 337 338 338 338 338 337 335 333 331 332 332 333 332 329 328 328 328 326 325 324 323 323 322 322 321 321 321 321 321 321 320 320 320 320 321 321 320 321 320 319 319 318 318 318 319 319 319 318 318 318 318 317 317 317 317 317 317 318 318 319 319 319 319 319
345 344 342 342 341 340 341 341 341 341 339 337 337 336 336 336 336 336 337 339 340 340 340 339 339 338 337 335 333 332 333 333 333 332 329 329 328 326 325 324 323 322 322 321 321 321 320 320 320 320 320 319 319 319 319 320 320 320 320 319 319 318 317 317 317 317 317 317 318 317 317 317 317 316 316 316 316 316 317 317 318 317 318 318 317
343 342 342 342 342 341 340 340 340 340 339 338 338 338 338 338 338 338 339 340 340 340 340 339 339 338 337 336 334 334 334 333 332 331 329 328 327 326 324 323 323 322 322 322 321 321 321 320 320 320 320 319 318 318 318 319 319 319 319 319 319 318 318 317 317 317 317 317 317 317 316 316 316 316 316 316 316 315 315 316 316 317 316 316 316
341 341 341 341 342 342 341 340 340 339 338 338 337 337 338 339 339 340 340 340 339 339 339 339 339 338 337 335 334 334 334 333 332 330 329 327 327 325 324 323 323 322 322 323 323 323 323 322 322 322 321 320 319 318 317 318 318 318 319 319 319 318 318 317 317 316 316 316 316 316 316 316 315 315 315 315 315 315 315 314 315 316 316 316 315
341 341 340 340 340 340 339 339 339 338 338 337 336 337 338 339 340 340 339 338 339 339 338 339 338 338 336 335 334 334 334 332 331 330 329 327 326 325 324 323 323 323 323 324 324 325 324 324 324 324 323 322 321 319 317 317 317 318 318 318 318 318 318 317 317 316 316 316 316 315 315 315 315 315 315 315 314 314 314 314 314 315 315 315 315
339 339 339 338 338 337 337 337 337 337 337 337 336 337 338 339 340 339 338 338 338 339 338 338 338 337 337 335 334 334 334 333 332 331 329 327 326 325 324 324 324 324 324 325 325 325 324 325 325 325 325 324 323 321 319 317 317 317 317 317 318 318 317 317 317 316 316 315 315 315 315 316 316 315 315 315 314 314 314 314 314 314 315 315 315
337 337 337 336 337 336 336 337 337 337 337 337 337 337 338 339 339 339 338 338 338 338 338 338 337 337 337 336 335 334 334 333 332 332 330 329 327 326 324 324 324 325 326 326 326 326 325 326 325 325 325 325 324 323 321 318 317 316 316 316 317 317 317 317 317 316 316 315 315 315 315 315 315 315 314 314 313 313 313 313 313 314 314 314 314
336 336 336 336 336 336 336 337 336 336 336 336 336 337 337 337 337 336 336 337 337 338 338 338 338 337 337 336 336 335 334 333 333 332 331 330 329 327 326 325 325 325 326 327 327 327 326 326 326 326 326 326 326 325 323 321 318 317 316 316 316 316 316 317 316 316 315 315 315 315 315 315 314 313 312 312 312 313 313 313 313 313 313 314 314
336 336 336 335 335 335 335 335 335 334 335 335 335 335 334 334 333 333 334 335 337 338 338 338 338 337 336 336 336 336 335 334 334 333 332 331 330 329 328 327 326 326 326 326 327 327 327 326 326 327 328 328 327 327 325 323 321 318 317 316 316 316 316 316 316 315 315 314 313 313 313 313 313 312 311 311 311 312 312 312 313 313 313 313 313
335 335 336 335 335 335 334 334 334 334 333 333 333 333 332 331 331 332 333 334 336 337 337 337 336 336 336 336 336 336 336 335 334 333 333 332 331 330 330 329 328 327 326 326 326 326 326 326 326 327 329 329 328 328 327 326 324 322 319 318 317 316 315 316 315 315 315 314 313 313 312 312 312 312 311 311 311 311 312 312 312 313 313 313 313
334 334 334 334 334 334 334 334 333 333 332 331 331 331 331 331 331 331 332 333 334 334 334 334 334 334 335 335 335 336 335 334 333 333 332 331 331 331 330 329 329 328 327 326 326 326 325 326 326 328 329 329 329 328 328 327 326 324 322 320 318 317 316 315 315 314 314 314 313 313 312 311 311 312 311 311 311 311 311 312 312 312 312 312 312
333 333 333 333 333 333 333 332 332 331 331 331 330 330 330 330 330 330 331 331 331 331 331 332 332 332 333 334 334 334 334 333 332 332 331 331 330 330 329 329 328 327 327 326 326 325 324 325 326 328 329 329 329 328 328 327 327 326 325 323 321 319 317 316 315 314 314 313 313 312 311 310 310 311 312 312 312 311 311 311 312 312 312 312 312
333 333 332 332 332 332 332 332 332 332 332 331 330 330 330 330 330 330 331 330 330 329 330 330 330 331 331 332 332 331 331 331 330 329 328 328 327 327 327 327 327 327 327 327 326 326 325 325 326 327 329 329 329 329 328 328 327 327 326 325 324 323 320 319 317 316 314 313 313 312 311 311 311 312 313 313 313 312 312 311 312 312 312 312 312
332 332 331 331 331 330 330 330 330 330 330 330 330 330 329 330 330 330 330 330 330 329 329 328 329 329 329 329 329 328 328 328 326 326 326 326 326 326 327 327 327 328 328 327 327 327 326 326 327 328 329 329 329 328 329 328 328 327 326 326 325 325 324 321 319 318 316 315 314 313 312 311 313 314 315 315 314 313 313 312 312 311 312 312 312
329 329 329 329 329 329 329 329 329 329 329 329 329 328 328 329 329 329 329 329 328 327 327 326 326 326 326 326 326 326 326 326 325 324 324 325 326 327 327 327 327 328 327 327 327 327 327 328 328 328 328 329 329 329 329 328 327 327 326 326 325 325 324 323 322 320 319 318 316 315 313 313 313 315 316 316 315 314 313 313 313 312 312 312 312
328 328 328 327 327 327 327 327 327 327 326 326 327 327 326 326 326 326 325 325 324 324 323 322 321 322 322 323 324 324 324 324 323 323 323 324 325 325 325 326 326 327 327 327 327 327 327 328 328 328 328 328 328 328 328 327 326 326 325 325 324 324 324 323 322 322 320 319 318 317 316 315 315 315 315 315 315 315 314 313 313 313 312 312 312
326 326 326 325 323 324 324 324 324 324 323 323 323 324 323 323 323 322 322 322 321 319 318 318 317 317 318 319 320 321 322 321 321 321 321 321 322 323 324 324 324 325 325 325 325 325 325 326 326 327 326 326 326 325 325 325 325 324 324 323 323 323 322 322 322 322 321 320 319 318 318 317 316 316 316 316 315 315 314 314 314 313 313 313 312
322 322 322 321 320 320 321 321 321 322 321 321 321 321 321 320 319 318 317 317 316 315 314 314 314 313 313 314 315 316 316 317 316 316 316 317 318 319 320 321 322 322 321 321 320 319 319 321 323 325 324 324 324 322 321 322 322 322 322 321 322 322 322 321 321 321 320 320 320 319 318 318 317 317 316 316 316 315 314 314 314 313 313 313 312
319 319 319 319 318 318 318 318 318 318 318 319 319 318 318 317 315 313 313 313 312 311 311 311 311 311 311 311 310 311 311 312 312 312 313 313 313 314 315 316 317 317 317 317 317 316 314 314 317 319 321 322 322 321 321 321 321 321 320 320 320 320 320 320 320 320 320 319 319 318 318 318 318 317 317 317 316 316 315 315 314 313 313 313 313
Wind_Speed
31 30 30 30 29 29 29 29 27 27 27 26 26 26 25 25 24 23 23 24 24 23 22 20 20 22 24 25 25 25 25 25 25 25 24 24 23 23 22 21 21 22 22 22 23 23 24 24 24 23 20 19 19 18 16 15 14 14 14 15 16 18 19 18 14 10 11 12 13 15 17 19 21 22 23 23 22 20 18 17 18 17 15 14 12
31 30 29 30 31 29 28 27 26 26 26 26 26 26 26 25 24 24 24 25 25 24 23 22 20 21 22 24 24 24 25 25 25 25 25 25 24 24 23 22 22 22 23 23 23 23 24 25 26 25 23 22 21 21 20 18 16 16 16 17 17 18 19 20 18 14 11 11 12 14 17 20 23 24 25 25 24 22 20 21 20 19 17 16 14
30 30 28 29 29 28 27 26 25 25 24 25 25 25 26 26 25 25 26 26 26 26 25 23 22 21 21 22 23 24 24 24 25 25 26 25 25 25 24 23 24 24 24 25 24 23 24 25 26 26 25 25 25 24 23 21 19 18 18 19 19 19 20 20 20 18 15 12 13 16 19 21 24 25 26 26 24 23 23 23 22 20 19 17 15
24 26 26 25 25 25 25 24 24 24 23 24 24 25 26 26 25 26 26 26 27 27 27 25 24 22 21 22 23 23 24 24 25 26 26 26 26 25 25 25 26 26 26 26 25 25 25 25 26 26 25 26 27 26 25 23 22 21 21 21 20 20 20 20 21 20 17 14 15 19 21 22 23 24 25 25 24 24 24 24 23 21 20 18 16
23 23 22 22 22 22 23 23 23 23 23 23 23 23 24 25 25 24 25 25 26 27 27 28 27 26 24 22 23 24 24 24 25 25 26 26 26 26 26 26 27 28 28 28 28 27 27 27 26 25 25 26 26 26 25 24 22 21 22 22 22 22 21 20 21 20 19 18 17 18 20 23 23 24 26 26 24 23 23 23 23 22 20 19 17
22 23 21 20 21 22 22 22 23 24 23 23 23 22 23 24 24 23 23 24 24 25 26 27 28 29 27 24 22 23 23 23 23 24 25 26 26 26 26 27 28 29 29 29 29 29 28 28 27 26 27 27 27 27 26 25 24 23 23 23 23 23 22 21 20 20 20 20 18 18 21 24 23 22 25 27 27 25 23 21 21 21 22 21 19
20 24 23 22 23 22 22 22 21 20 21 21 22 22 23 24 24 23 22 22 22 23 24 25 27 28 28 26 24 22 22 22 22 23 24 24 24 24 24 26 27 29 29 30 30 30 30 30 30 29 29 28 28 28 28 27 26 25 24 24 25 24 23 22 21 20 20 20 18 17 20 23 23 22 24 27 26 26 25 24 21 21 24 24 21
20 24 24 23 23 22 21 19 18 19 21 23 24 24 23 23 20 18 18 19 20 21 22 23 24 25 26 27 26 24 22 22 22 22 23 22 22 23 24 26 28 29 30 30 30 31 31 31 31 31 30 30 29 29 29 29 28 28 27 27 26 25 25 23 21 20 20 19 17 16 17 19 19 19 21 24 23 23 27 28 26 26 27 26 23
20 22 22 22 21 20 18 17 17 20 22 21 19 17 14 13 14 14 14 16 18 20 21 22 23 23 24 24 24 24 23 23 22 21 21 21 20 21 23 25 27 27 29 30 31 32 33 33 33 32 31 31 31 30 30 30 30 30 30 29 28 27 26 24 22 21 21 18 15 14 15 18 20 20 21 26 29 27 27 28 27 27 27 24 23
18 18 18 19 19 18 16 15 15 16 16 15 14 11 10 11 13 13 13 14 16 18 19 21 22 22 22 22 21 21 21 21 20 19 18 17 17 17 18 18 19 20 22 25 28 30 31 32 34 33 33 32 32 32 31 31 31 31 31 31 30 29 27 25 24 23 21 17 16 16 15 17 22 26 27 29 31 29 26 27 26 24 24 21 19
17 17 18 18 18 17 16 15 14 14 14 14 14 14 14 14 11 9 11 13 15 16 17 19 20 20 20 20 20 20 20 20 20 19 18 16 15 14 14 16 19 21 22 23 25 28 29 30 32 33 34 33 33 34 33 32 32 31 32 32 33 32 30 28 27 26 24 21 19 18 17 17 22 30 31 28 28 29 30 30 26 25 27 23 17
16 17 17 16 16 15 15 15 16 16 15 14 13 13 15 14 10 9 11 13 14 15 16 18 21 21 19 18 19 19 20 21 21 20 18 16 15 13 14 18 22 25 26 26 27 29 30 30 30 31 32 32 33 34 32 31 32 32 32 33 34 34 34 32 31 30 27 22 16 15 18 20 22 30 34 31 31 32 30 28 28 30 31 29 24
14 13 12 12 12 12 13 14 14 14 13 11 9 10 12 13 11 11 11 11 14 16 16 18 21 21 19 19 19 20 21 21 20 19 19 19 19 19 20 21 23 25 26 26 26 28 30 30 29 29 30 30 30 30 29 30 31 31 31 31 31 32 33 33 33 31 27 23 20 22 28 29 28 33 37 36 34 32 29 29 32 33 31 32 31
10 9 8 9 9 10 12 12 11 10 8 7 6 8 10 11 11 10 10 11 12 14 16 19 21 20 18 18 18 19 19 16 14 14 16 18 20 23 25 26 27 28 29 29 29 30 31 32 32 33 33 31 29 28 28 29 29 29 28 28 28 29 28 29 30 30 29 28 29 31 34 34 34 36 36 33 34 34 34 35 38 38 36 33 30
9 8 8 9 9 10 11 11 9 8 7 7 7 7 8 9 9 10 12 13 13 14 16 18 19 18 16 16 16 17 16 11 8 8 11 14 18 22 24 24 25 26 28 30 31 32 33 33 33 34 33 32 30 29 30 30 28 28 27 27 27 27 28 29 31 32 33 34 35 35 35 35 36 34 31 31 34 36 36 37 38 39 35 29 23
7 7 8 8 8 9 11 9 8 7 6 6 7 6 6 6 6 8 11 13 15 16 17 17 17 17 16 15 15 16 14 10 8 10 14 17 19 21 21 21 22 23 24 26 28 30 31 32 32 31 30 30 29 29 29 28 26 24 25 26 27 28 30 32 32 32 33 36 38 38 37 37 36 35 35 36 36 37 35 31 30 31 29 23 20
6 7 7 7 9 10 10 8 7 7 7 8 9 8 8 8 8 9 13 15 16 16 16 16 16 16 15 15 14 14 13 9 7 10 14 17 17 17 18 19 21 23 23 24 26 28 29 29 29 29 29 30 30 28 25 23 20 19 23 27 29 30 32 32 32 33 35 38 39 38 38 39 38 38 38 37 35 36 33 29 29 31 29 22 18
6 8 9 9 10 9 8 7 6 7 9 10 10 9 8 8 8 9 12 13 13 12 12 11 12 12 12 11 10 10 9 6 4 6 10 12 14 14 15 16 19 21 22 23 24 26 26 27 27 27 29 30 30 28 25 21 18 19 24 28 29 30 31 30 30 33 35 37 38 38 39 39 39 39 40 37 35 36 38 36 35 34 30 26 22
5 8 10 8 7 7 6 5 4 5 7 9 9 8 7 6 6 7 9 9 9 8 7 7 6 6 5 5 4 4 4 3 2 4 7 10 13 13 13 14 16 18 19 20 20 21 21 22 22 23 24 25 25 25 25 23 21 21 24 26 28 31 32 29 30 32 33 34 36 37 38 39 39 40 42 41 38 39 42 42 39 37 36 33 27
5 9 10 7 7 6 6 4 4 4 5 5 5 5 5 5 5 5 6 6 6 5 4 4 4 3 3 4 4 4 4 3 3 5 7 10 11 11 11 13 14 15 16 17 19 19 19 20 19 19 19 19 19 19 19 20 20 20 22 25 28 30 30 28 29 31 31 33 35 35 36 39 39 40 42 42 40 40 43 44 43 44 44 38 34
5 7 7 2 5 5 5 4 2 2 3 3 4 4 4 5 5 4 4 4 4 3 3 4 5 6 6 6 5 5 5 4 4 5 6 8 8 9 9 10 11 13 14 15 16 16 16 16 16 16 16 16 17 18 18 19 19 20 21 23 26 28 27 27 28 29 30 32 33 33 35 36 36 38 40 40 40 41 44 46 47 49 49 43 39
6 4 2 2 3 3 3 2 1 3 4 5 5 4 4 4 4 3 3 4 5 5 5 6 7 8 8 8 7 6 5 5 5 5 5 5 6 7 8 8 8 9 11 12 13 13 13 13 14 15 16 17 18 20 20 21 21 22 22 22 23 24 25 26 28 29 29 30 31 31 33 33 34 35 37 38 39 40 44 47 49 51 52 50 46
7 6 5 2 1 1 2 3 4 5 6 6 6 5 5 4 4 4 4 5 5 5 4 5 6 9 10 9 9 7 6 6 6 6 5 6 7 8 9 9 8 9 11 12 13 13 15 16 17 18 18 19 20 20 21 21 22 23 24 23 23 23 23 24 26 26 27 28 28 28 29 30 31 32 33 35 37 40 43 46 50 51 52 52 51
13 11 11 9 6 5 5 6 6 6 5 5 5 4 4 4 4 5 5 6 6 6 6 7 9 11 12 12 11 8 6 4 4 4 5 6 8 9 9 10 11 12 12 13 15 17 17 18 19 19 20 20 20 20 19 19 20 21 21 22 23 24 24 24 24 24 24 24 25 26 28 29 29 29 30 32 35 39 42 45 49 52 52 52 50
20 19 18 16 13 10 8 7 5 4 4 4 4 4 4 4 5 5 6 6 7 8 9 10 12 14 15 14 12 10 7 4 4 6 7 8 11 12 12 13 13 13 13 15 17 17 16 16 16 16 16 16 16 16 16 16 16 17 17 18 19 20 21 21 21 21 22 22 22 24 26 27 28 28 28 29 31 34 37 39 42 46 46 45 42
21 20 18 17 15 13 11 8 6 5 4 4 5 5 6 6 7 7 8 8 8 8 9 10 12 15 15 13 11 10 8 6 6 8 10 11 13 14 14 14 13 14 16 16 15 13 13 14 14 14 14 14 13 13 13 14 14 15 14 15 15 15 15 15 16 17 18 20 20 22 24 25 25 25 25 26 25 25 27 31 34 36 37 35 32
18 17 16 16 14 12 10 8 7 6 5 6 6 7 8 8 9 9 9 9 8 8 8 10 11 11 11 10 9 8 8 7 9 10 11 12 13 14 13 13 14 16 15 12 10 10 11 12 13 13 13 13 11 11 11 12 12 13 12 12 12 12 11 11 12 14 16 18 19 21 23 23 22 22 21 20 20 19 21 27 29 29 31 32 30
13 13 14 13 11 9 8 7 7 6 5 5 6 7 8 8 8 8 8 9 9 8 9 9 8 8 8 8 8 9 9 9 10 11 11 12 13 12 12 13 14 13 11 8 8 9 10 11 12 12 12 12 11 11 11 11 12 13 14 14 13 12 11 10 10 12 14 16 17 17 18 18 18 18 17 15 14 14 17 21 22 21 22 23 23
10 10 11 11 9 8 7 6 6 6 6 7 7 8 8 8 8 8 7 7 8 8 9 8 7 8 8 8 9 9 9 9 9 10 11 12 12 11 10 11 10 8 7 7 7 8 9 11 12 12 13 14 12 12 13 14 15 15 15 15 15 14 13 12 11 11 11 11 12 12 12 12 12 11 9 7 7 8 11 15 16 18 19 16 14
8 9 9 9 8 7 6 6 7 7 7 8 8 9 8 8 8 8 8 8 8 8 7 7 7 9 9 9 9 9 9 8 8 10 10 10 10 9 7 6 5 4 4 5 7 9 11 12 12 13 13 12 10 10 11 12 13 14 15 15 14 14 13 12 11 10 9 8 8 8 8 7 5 3 2 2 3 4 7 11 14 18 19 17 16
9 9 8 7 7 7 6 6 6 7 7 7 7 8 9 9 9 9 9 9 8 7 7 7 8 9 9 9 8 8 9 9 10 10 10 9 7 6 4 2 1 1 2 4 7 9 11 11 11 12 12 12 10 8 9 9 10 12 15 14 12 12 12 10 9 8 7 6 5 4 3 2 1 3 4 5 7 8 9 12 16 18 19 21 23
9 8 7 6 5 6 6 6 6 6 6 7 7 8 8 9 8 8 8 8 8 8 8 9 9 9 9 9 8 7 8 10 12 13 12 9 7 4 2 0 1 2 2 4 6 8 9 9 10 11 12 12 10 9 9 10 11 12 14 13 11 10 10 9 8 7 6 4 3 2 1 2 3 5 5 6 8 10 11 13 15 18 19 20 22
9 8 7 5 5 5 6 6 6 6 6 7 7 7 8 8 7 7 7 7 8 9 9 9 9 8 8 8 8 8 8 10 12 14 13 10 7 4 1 1 1 2 2 3 5 6 7 8 9 10 11 11 10 9 9 10 11 11 12 12 11 9 8 8 7 5 4 3 2 2 3 3 5 6 6 7 9 11 12 12 14 16 18 17 17
9 8 7 6 5 5 6 7 7 7 6 6 7 6 6 6 6 7 7 8 9 9 9 9 9 9 9 9 9 9 9 11 12 13 12 9 6 4 2 1 0 1 2 3 4 5 6 7 9 10 10 10 10 9 9 9 9 10 10 10 10 9 7 6 5 4 3 2 2 4 5 5 7 8 10 10 12 13 14 14 16 18 18 17 18
8 7 6 5 4 4 5 7 8 8 8 7 6 5 5 5 5 6 7 8 9 9 10 10 10 11 11 10 9 9 9 10 12 13 11 8 5 4 3 2 2 2 3 3 4 5 6 7 8 9 10 11 10 10 9 8 8 8 9 8 8 7 6 5 4 3 2 2 3 5 6 7 9 10 11 11 11 12 13 13 15 16 17 18 20
6 5 3 3 3 3 3 4 6 8 9 8 7 5 3 3 3 4 6 8 9 10 10 11 11 12 12 11 10 9 9 10 11 12 11 8 6 6 6 5 4 4 5 5 6 7 7 8 8 9 10 10 10 10 9 9 8 8 8 7 6 6 5 4 3 2 1 1 3 5 7 8 9 11 11 11 10 11 12 12 13 14 16 17 19
6 5 4 3 3 3 4 4 4 4 6 7 7 5 3 2 2 3 5 7 8 9 9 10 11 13 13 11 10 9 9 9 10 11 11 7 6 8 8 7 7 7 7 6 7 8 8 8 9 10 11 11 11 10 9 9 8 8 7 7 6 5 5 4 4 3 2 2 3 5 7 8 9 10 10 10 10 10 11 12 12 13 14 16 18
6 6 6 6 6 5 4 4 3 2 3 3 3 3 2 1 1 3 4 6 6 7 8 10 12 13 13 11 9 9 10 10 10 10 10 8 7 9 10 9 9 10 9 8 8 9 10 10 11 12 13 12 12 11 10 9 8 8 8 7 7 6 6 6 5 4 4 3 3 5 7 8 8 8 8 9 9 10 12 13 13 13 13 15 17
6 7 7 7 8 7 6 5 4 3 3 2 2 2 2 2 3 4 5 6 6 7 8 9 11 12 12 11 10 10 11 11 10 10 9 8 8 9 11 12 12 11 11 10 10 11 12 12 14 15 15 14 13 13 12 11 9 8 8 8 8 8 8 7 6 5 5 5 4 5 7 7 7 6 7 7 9 10 12 13 14 14 14 15 16
7 7 8 8 9 9 7 6 7 7 6 6 6 5 5 5 5 6 6 7 8 8 9 9 10 11 11 10 10 10 11 12 12 11 10 9 9 9 11 13 14 14 13 12 12 12 13 14 16 17 18 17 15 14 13 13 11 9 9 9 9 9 10 9 9 8 7 6 6 7 7 7 7 7 7 8 8 10 11 13 14 15 15 15 16
7 8 9 9 9 9 8 8 9 8 8 8 8 8 8 8 8 7 6 6 7 8 9 10 10 11 11 11 10 10 11 13 13 13 12 11 10 10 11 12 14 15 16 16 15 15 15 15 17 18 18 18 17 15 14 14 13 12 10 10 10 11 11 11 11 10 9 8 8 8 8 8 8 8 8 8 9 9 11 13 14 15 15 15 16
8 9 10 10 10 9 9 9 9 9 9 9 9 9 8 8 8 7 6 5 6 7 9 10 11 11 11 11 11 11 12 13 13 14 14 13 13 12 12 12 13 14 15 17 17 18 18 18 17 17 18 19 19 17 15 14 14 14 12 11 11 12 12 13 13 13 12 11 10 10 9 8 8 8 8 9 9 10 12 13 14 15 16 16 17
9 10 11 11 11 11 11 10 10 10 11 11 10 9 9 9 9 9 7 6 5 5 7 9 10 10 10 11 11 12 13 13 13 14 15 14 14 14 13 13 13 13 14 14 15 16 16 16 16 16 17 18 18 17 16 14 14 14 14 13 12 12 13 14 14 15 15 14 13 11 10 10 10 9 9 10 10 11 12 14 15 16 16 17 17
10 11 11 11 11 11 11 11 11 12 11 11 10 11 11 11 12 12 12 12 12 11 10 10 9 9 9 9 11 12 13 13 13 13 13 13 13 13 13 13 13 13 13 13 12 12 12 13 13 14 16 16 16 16 15 14 14 14 15 14 13 13 13 14 14 14 15 16 15 14 13 12 12 11 12 11 11 12 13 15 16 17 17 17 18
10 11 11 11 11 12 12 12 12 11 11 11 11 11 12 12 13 13 14 14 15 16 16 16 15 13 11 10 9 10 11 11 11 11 11 11 11 11 11 11 11 10 10 10 10 10 10 11 12 14 14 14 14 14 14 14 13 14 15 16 16 14 12 11 11 11 13 15 16 16 16 15 14 14 14 14 14 14 15 15 16 17 18 19 19
12 12 12 12 12 13 13 13 12 12 12 12 12 12 13 13 14 14 13 13 14 15 16 17 17 17 16 15 13 12 12 12 12 12 11 12 12 11 10 9 8 7 7 7 7 7 8 9 10 12 13 13 13 13 13 13 13 14 15 16 17 17 15 12 11 11 12 13 15 16 17 17 17 17 16 16 16 16 16 16 17 18 19 19 20
14 14 14 14 14 14 14 14 14 14 13 13 13 14 14 14 15 15 14 14 15 15 15 15 16 16 17 17 16 16 15 15 15 16 16 16 15 13 12 11 9 8 7 5 4 4 5 5 7 9 11 12 12 11 11 12 12 14 15 16 18 19 19 17 16 15 14 14 14 16 17 18 19 19 18 18 18 19 19 19 19 19 20 20 20
15 15 15 15 15 15 14 15 15 15 14 15 15 15 15 15 16 16 16 17 17 16 16 16 16 16 16 17 17 16 16 16 16 17 18 17 16 14 14 12 11 10 8 7 6 6 5 5 6 7 9 10 10 10 9 9 10 11 13 15 17 18 19 20 21 20 18 17 17 18 18 19 19 20 20 20 20 21 22 22 22 22 22 22 22
17 17 17 17 17 17 17 17 17 16 16 16 16 16 17 17 17 17 18 19 19 18 18 18 18 18 18 18 18 18 17 18 18 19 19 18 17 15 13 12 11 10 9 9 9 9 7 6 6 7 8 9 9 8 7 7 8 9 11 13 15 16 17 18 20 21 22 22 22 21 21 21 21 21 21 21 21 22 23 23 24 24 24 24 24
19 20 20 19 19 19 19 19 19 18 18 17 17 17 18 19 18 19 20 21 20 20 19 19 19 19 18 19 20 20 20 20 20 20 20 20 19 18 16 15 13 12 11 11 12 12 11 9 7 7 8 9 9 9 9 9 9 10 11 13 14 15 16 17 18 19 21 22 23 24 24 23 23 23 22 22 23 23 23 24 24 24 25 25 25
20 20 20 20 20 21 21 21 21 20 20 18 18 18 19 19 19 20 21 22 21 20 19 19 19 18 18 19 20 20 20 20 20 20 21 20 20 20 19 18 18 17 16 14 14 14 14 13 13 12 11 10 11 11 11 11 12 12 13 14 14 15 15 16 17 18 20 21 22 24 25 25 25 25 25 24 24 24 25 25 25 25 26 26 26
Wind_Direction
209 214 218 219 220 221 222 224 225 226 227 228 230 232 233 233 233 232 229 227 227 228 230 231 234 237 239 239 239 241 243 245 246 248 251 254 256 258 261 263 265 266 268 267 265 264 262 262 262 263 265 270 272 272 273 274 274 270 266 262 256 249 242 233 231 242 243 237 233 229 226 218 213 213 212 209 209 209 209 210 210 209 206 200 197
207 213 215 217 221 224 225 226 228 228 226 226 229 231 232 232 232 231 229 228 228 228 230 231 234 237 240 241 239 240 243 245 246 247 250 253 255 258 261 263 263 265 266 267 266 263 262 262 262 263 264 266 268 269 268 269 271 267 261 259 256 253 250 240 235 236 234 228 225 224 222 217 213 213 214 213 210 207 207 208 207 207 208 205 201
209 213 214 216 220 225 227 228 229 230 228 227 228 231 233 233 233 232 231 230 229 230 231 232 234 237 240 242 241 240 242 244 247 248 250 253 255 259 263 265 265 266 267 268 268 265 263 263 263 264 265 265 266 267 266 267 269 266 262 260 258 258 257 249 241 236 231 225 219 216 216 214 213 214 214 216 214 211 209 208 205 204 206 206 203
221 217 214 217 220 224 228 227 228 231 232 232 232 234 235 234 233 233 233 232 231 231 233 233 234 237 239 241 241 241 241 244 247 250 252 254 256 260 264 267 268 269 270 271 271 269 266 265 266 268 267 266 267 268 268 268 268 265 263 263 262 262 261 256 249 241 232 225 219 219 217 212 212 214 212 211 213 213 211 208 204 203 204 204 204
232 229 221 221 223 226 230 231 233 234 235 236 237 236 235 234 234 234 232 232 232 233 234 234 234 235 237 239 240 240 241 243 247 249 251 254 257 262 267 269 270 271 272 273 272 271 269 268 269 271 270 269 269 270 270 269 267 265 264 263 263 264 263 259 254 244 235 229 220 216 215 212 211 213 211 208 207 205 206 207 204 201 201 201 202
233 237 230 227 230 233 235 238 239 238 239 241 242 240 238 235 235 235 234 234 233 233 234 233 233 233 235 237 238 238 239 241 244 246 250 255 261 266 270 271 272 272 273 273 273 271 270 271 271 271 270 270 270 271 271 270 268 265 263 263 263 262 260 259 256 246 236 232 223 211 209 211 210 208 209 210 208 203 199 199 200 201 201 198 195
230 234 231 232 234 236 240 243 243 244 247 250 249 246 243 241 239 238 237 236 235 234 233 232 232 231 233 236 237 239 240 242 244 247 251 256 262 267 271 274 274 274 273 274 273 271 270 270 271 271 270 270 270 271 271 270 269 266 265 264 262 258 257 256 254 246 236 230 222 213 210 210 209 207 207 209 209 205 199 192 190 197 201 199 195
224 227 228 233 236 237 242 244 244 247 251 253 254 252 248 247 246 245 244 243 242 239 234 231 231 232 234 236 238 241 244 246 248 250 253 257 262 269 274 276 275 274 273 273 273 272 271 270 270 270 271 271 271 272 271 270 268 267 267 265 260 255 253 250 247 240 232 226 221 217 210 205 205 205 202 200 201 205 205 200 194 195 198 199 199
221 222 224 231 237 240 244 245 246 252 255 256 259 263 265 263 262 263 262 257 255 252 244 236 233 233 234 236 238 241 244 248 251 255 259 263 269 274 277 278 277 275 274 275 273 272 271 271 271 271 271 272 274 273 273 272 268 266 267 265 259 253 249 245 240 232 226 224 221 214 205 202 203 198 194 199 205 208 208 203 201 199 195 192 198
220 221 223 229 236 241 244 245 249 257 261 262 266 276 286 280 269 267 269 266 262 260 255 247 238 234 234 235 238 241 244 249 253 255 258 262 268 274 278 280 280 280 281 283 281 277 275 273 272 272 273 274 276 276 275 273 270 268 268 266 260 254 247 241 236 230 224 220 215 208 203 204 207 205 205 209 211 211 206 201 200 199 191 188 199
216 219 222 225 231 236 241 247 254 259 262 265 268 270 272 273 270 263 261 263 263 263 263 259 250 242 238 237 239 241 244 247 249 251 253 255 261 267 270 269 270 272 276 280 281 279 277 276 275 275 275 275 276 276 275 274 273 271 269 266 262 257 251 243 238 233 225 219 217 212 208 210 214 215 216 214 210 211 208 201 196 192 188 188 196
210 215 220 226 234 242 248 254 257 257 256 257 259 260 261 262 260 254 254 257 258 257 259 259 256 250 246 245 246 247 248 249 250 253 255 254 254 257 260 263 266 267 269 273 275 275 275 276 276 276 276 276 277 277 276 275 274 271 270 267 262 259 256 251 247 239 229 223 222 221 223 226 223 221 221 217 213 212 208 201 197 195 194 197 201
201 210 220 232 242 247 251 254 253 251 248 247 248 254 257 256 252 250 250 250 251 251 254 257 257 255 252 252 253 253 254 257 258 259 258 254 253 255 259 263 265 265 266 268 270 269 269 271 273 273 275 278 278 278 277 278 277 273 269 265 261 259 258 257 254 246 238 232 226 231 239 236 229 231 233 226 216 209 202 200 202 201 202 208 211
184 198 214 231 242 247 249 249 249 251 249 246 250 254 255 255 255 258 260 261 263 262 260 258 257 255 254 253 254 256 257 260 260 257 256 255 255 258 261 263 264 264 265 265 265 262 260 262 266 270 273 274 274 273 275 277 277 272 267 262 257 255 254 255 253 248 247 244 235 237 246 242 236 241 242 229 217 212 207 206 208 206 208 214 216
174 193 215 227 233 242 247 245 244 250 251 249 246 239 241 252 266 282 287 282 275 265 256 252 252 254 255 255 257 260 260 258 249 246 251 254 255 256 259 260 262 264 264 264 263 262 259 259 261 265 268 270 270 271 273 274 272 267 261 256 253 250 250 253 254 250 249 250 246 248 255 252 246 246 242 233 228 225 220 219 217 211 209 210 212
175 204 224 224 223 237 247 244 240 248 257 258 248 228 223 238 257 275 275 266 259 254 253 255 258 261 262 262 264 265 263 257 248 252 258 257 257 258 259 259 262 266 267 265 261 260 258 257 257 259 263 268 270 272 274 274 269 264 260 256 254 254 255 258 260 257 254 254 253 256 261 260 253 247 244 242 237 228 221 219 216 208 204 201 200
204 234 238 229 229 237 238 230 229 241 253 258 259 252 245 243 245 249 252 252 252 256 260 265 266 266 267 267 268 268 265 262 254 256 261 262 263 266 264 261 262 265 267 267 263 261 259 258 259 261 265 268 270 271 272 270 264 261 264 264 262 262 264 264 262 260 259 258 257 258 261 261 255 249 246 245 240 228 216 208 205 201 197 195 195
228 246 238 225 223 225 221 223 237 252 260 265 271 275 267 258 256 254 253 255 257 258 262 263 261 262 265 266 269 270 270 268 254 255 261 261 264 269 269 265 263 265 268 269 267 266 266 267 268 270 271 272 272 271 271 270 262 257 260 262 262 262 265 266 265 262 260 259 258 258 259 258 255 251 248 246 241 229 219 215 210 200 195 200 200
241 253 245 228 215 216 218 228 245 253 260 268 279 287 283 270 263 254 250 255 258 256 256 258 258 258 258 263 273 277 274 256 226 249 261 260 261 267 272 271 269 271 277 279 279 279 278 279 279 279 278 279 276 273 273 273 268 260 254 250 249 253 257 260 263 262 260 260 259 257 256 256 254 251 248 247 241 229 225 224 215 202 201 205 197
241 258 255 223 187 196 205 199 210 227 240 254 270 280 277 262 253 250 250 255 257 253 253 264 278 280 277 279 283 284 283 270 244 248 256 259 262 266 269 273 276 280 285 288 289 291 293 293 293 292 290 286 281 277 274 271 270 265 253 242 243 252 259 259 261 263 262 261 260 259 258 259 257 252 247 244 238 230 228 226 218 212 209 204 194
211 251 264 207 142 156 168 164 194 236 247 254 256 254 251 248 250 258 266 272 278 289 298 299 300 300 300 301 301 299 295 286 271 259 256 259 265 268 270 277 285 291 293 292 292 295 298 299 298 295 291 286 284 284 281 277 277 275 265 255 254 262 265 260 260 263 262 260 259 257 257 256 254 251 246 240 234 229 225 222 220 219 216 208 201
171 185 245 6 57 88 120 135 233 244 238 239 243 249 252 253 259 270 285 297 302 310 317 318 319 321 321 319 317 313 305 300 298 293 284 285 292 295 299 304 303 299 299 299 300 301 300 299 296 290 286 284 283 284 285 284 283 281 278 274 270 269 267 263 262 263 262 260 258 254 253 250 248 247 244 239 234 229 225 221 220 221 222 219 215
160 161 176 208 5 93 166 194 210 219 223 222 226 243 249 249 263 277 286 294 294 294 301 307 314 318 319 321 321 311 296 297 303 304 306 310 312 311 314 318 317 314 312 312 312 310 304 299 296 292 289 288 287 287 287 287 285 282 281 280 278 276 274 270 268 266 263 263 262 258 257 254 251 248 244 240 238 233 229 225 222 222 224 224 222
163 169 179 189 197 205 207 200 194 198 204 205 211 228 235 238 256 272 281 291 293 294 302 308 313 317 318 323 327 319 299 284 286 293 300 305 305 305 307 309 312 314 315 314 314 314 313 309 305 301 298 295 293 293 292 291 289 287 284 282 279 278 277 275 274 273 270 267 265 263 263 262 259 259 255 251 248 243 235 228 225 224 224 223 221
164 170 176 185 192 200 203 200 199 201 203 205 210 217 226 235 249 263 276 287 291 297 306 312 316 319 321 325 330 329 323 308 295 298 298 295 296 298 300 304 309 311 311 311 313 318 322 323 321 319 315 310 305 301 299 296 294 293 291 290 287 286 285 283 280 277 272 268 265 265 266 267 267 267 265 260 257 250 237 228 226 224 221 219 217
166 170 176 182 187 192 195 200 214 229 240 249 251 249 247 248 253 258 263 269 277 286 297 304 310 316 320 323 322 321 323 320 313 308 301 295 295 299 303 307 307 305 305 308 317 326 330 331 334 337 337 334 329 323 316 311 307 305 303 303 302 300 300 298 292 284 275 271 270 268 268 271 270 268 268 267 265 258 243 230 225 221 215 210 206
173 175 177 180 186 193 198 205 215 225 235 247 254 259 258 256 258 262 267 272 277 280 286 295 305 314 318 317 308 301 304 311 314 313 308 303 302 302 304 303 301 302 309 319 330 334 332 334 339 340 341 340 337 333 329 326 329 331 331 331 329 326 321 312 299 289 280 278 279 275 272 272 272 272 274 273 270 262 244 229 222 216 208 201 192
181 178 176 180 188 195 199 208 215 222 235 244 250 255 255 253 257 264 271 277 281 285 290 298 307 315 317 314 304 295 297 305 312 315 316 313 309 304 302 301 302 312 327 337 335 330 330 338 344 345 348 350 348 347 350 354 359 359 356 353 351 349 344 333 313 298 290 289 289 283 276 274 275 276 277 272 264 252 234 224 219 207 194 187 176
189 181 178 182 188 193 197 209 219 226 235 242 245 249 250 250 250 252 255 260 268 279 288 298 309 314 313 313 307 300 302 308 313 317 318 317 313 309 308 309 313 325 336 331 328 332 338 346 352 354 358 360 359 359 2 5 8 8 4 358 356 356 355 351 339 324 313 305 299 291 283 278 277 275 270 258 249 237 220 212 204 188 175 168 157
201 194 191 188 186 190 197 209 224 233 237 239 242 243 243 243 240 240 243 246 249 258 271 290 306 311 312 313 308 302 303 307 309 314 318 318 315 311 309 313 320 333 334 326 332 341 345 349 355 357 359 1 2 1 1 2 3 4 2 359 357 359 0 358 351 343 333 320 307 297 292 290 283 270 237 194 179 186 195 192 181 171 162 150 138
214 209 207 202 197 200 200 202 220 238 240 236 236 238 237 236 235 236 241 246 249 258 277 296 305 307 311 315 311 304 305 308 310 315 322 321 313 306 303 308 332 18 360 344 344 346 347 348 351 354 356 359 1 358 356 357 356 355 355 355 356 359 1 359 355 350 340 329 323 316 311 312 119 123 123 131 135 139 151 159 160 158 152 144 140
231 230 232 231 225 219 208 193 199 223 231 227 229 235 239 241 244 247 252 257 265 279 293 301 302 302 305 310 311 307 309 314 319 324 329 326 313 301 296 61 90 76 24 355 349 348 347 345 344 347 350 353 355 353 349 349 348 347 347 348 350 356 360 357 352 348 343 339 342 348 41 99 112 110 109 117 123 126 130 136 141 142 139 137 139
249 254 263 267 256 237 223 212 208 217 227 230 230 234 241 249 259 268 275 280 287 293 297 300 301 302 300 301 303 305 309 318 323 324 326 323 311 298 289 93 73 43 15 357 349 348 350 347 345 345 344 343 345 345 341 340 340 341 342 342 341 345 351 352 351 354 357 5 41 96 107 111 113 109 109 116 121 123 126 127 130 133 132 130 133
266 272 280 283 270 246 240 243 237 227 225 230 235 244 253 259 267 278 286 292 297 298 298 298 298 300 297 294 297 302 308 316 322 323 323 317 297 269 241 187 22 354 360 1 353 346 348 350 349 348 344 340 338 336 333 332 332 334 336 336 334 335 340 346 352 4 23 55 102 121 125 130 130 124 122 125 126 128 130 132 133 135 134 133 136
278 278 276 274 273 258 246 244 239 234 230 230 235 250 263 269 275 284 288 291 295 299 302 303 301 299 297 295 299 305 309 316 324 328 324 309 274 242 231 235 266 307 324 335 338 333 332 336 342 344 343 340 336 332 327 323 323 324 327 329 329 325 325 330 341 355 25 92 122 131 134 135 136 133 131 130 129 128 129 133 136 138 139 141 144
292 292 281 264 271 280 274 260 250 246 242 237 235 241 250 262 280 292 293 292 294 297 301 304 303 302 302 301 301 303 307 315 325 330 325 303 262 234 229 237 257 280 294 309 320 320 318 322 327 332 335 335 335 332 323 314 311 312 315 317 316 310 307 305 305 312 312 157 151 151 147 143 143 142 138 135 134 135 135 138 140 141 145 148 150
325 331 339 334 320 311 305 301 292 270 251 241 237 233 225 229 265 287 287 289 293 297 301 306 308 308 309 307 301 298 301 308 319 329 328 306 260 236 234 241 254 267 280 296 308 314 320 328 331 329 326 323 324 326 321 310 303 299 300 303 300 292 287 283 278 277 267 222 187 175 167 159 155 154 149 146 147 149 151 153 152 152 156 159 159
346 348 353 353 350 350 345 341 345 331 290 262 247 231 211 210 289 294 288 288 292 296 301 308 312 314 318 320 311 299 297 301 312 325 329 313 272 246 240 245 255 266 276 286 293 300 314 330 337 336 330 322 315 313 314 309 299 289 287 290 288 278 271 268 269 269 263 246 217 195 184 177 173 172 170 168 168 169 168 168 166 162 164 168 168
1 5 9 8 10 16 18 20 23 13 354 348 351 346 347 346 334 317 305 298 295 296 302 309 313 318 325 327 318 303 295 297 304 315 321 315 292 264 249 247 253 263 272 279 284 290 302 320 332 335 333 327 316 306 303 303 300 289 279 276 275 270 263 260 260 258 254 246 230 211 202 198 196 198 199 194 190 187 183 180 178 174 172 174 175
14 16 20 22 27 33 38 41 38 30 23 19 15 10 9 3 351 337 325 309 297 297 302 306 311 319 325 325 318 307 296 295 299 303 305 306 302 285 267 258 257 261 268 274 281 288 298 313 326 330 331 329 323 309 298 294 294 292 281 270 265 264 262 260 258 254 248 243 237 229 225 223 220 217 213 207 203 199 195 190 187 185 182 181 181
24 29 32 36 41 48 54 53 44 33 25 20 15 12 10 6 358 349 337 317 302 300 302 304 310 319 322 321 317 309 298 295 298 297 295 295 297 295 289 280 273 270 270 272 277 284 294 306 319 327 329 329 326 317 301 288 285 287 285 274 266 263 261 258 256 253 248 244 242 240 238 235 229 222 217 212 207 205 202 197 194 193 192 191 190
32 35 36 38 43 47 47 41 31 23 18 15 13 11 10 8 6 4 356 332 311 303 301 305 311 317 318 316 314 308 300 296 296 296 295 295 294 294 298 301 298 292 285 279 277 281 288 298 310 322 327 328 326 321 308 292 282 282 285 281 272 265 261 258 257 254 252 251 248 244 240 234 230 227 224 218 211 206 203 201 198 197 196 196 196
39 39 39 39 40 41 41 35 30 28 27 27 26 26 27 27 28 29 29 20 360 333 315 312 313 313 312 310 307 302 298 297 299 301 302 301 300 299 303 307 310 310 305 296 289 287 288 293 303 316 324 327 326 321 314 301 286 279 280 283 280 273 266 261 257 254 252 251 251 247 240 233 229 226 222 220 216 211 208 205 202 201 200 200 200
40 41 43 44 43 43 43 39 36 37 38 39 40 39 39 39 41 43 44 43 38 31 20 3 347 333 324 318 313 311 310 309 311 314 313 312 312 311 312 314 315 315 313 311 307 302 296 292 298 311 320 324 324 321 317 309 294 280 275 277 281 282 276 268 263 258 253 250 249 247 240 233 230 227 224 220 216 211 209 207 205 204 203 202 202
40 41 42 44 44 44 44 41 40 42 43 42 43 42 41 40 41 41 41 42 40 39 36 32 26 21 14 5 352 341 335 332 332 332 333 337 339 337 335 333 330 326 325 325 321 315 306 299 300 307 313 316 317 317 315 310 300 288 278 272 272 278 283 282 277 270 261 253 249 247 242 236 232 229 227 225 221 217 214 212 209 207 206 206 206
46 48 48 47 47 48 47 46 45 45 45 45 44 44 42 40 40 39 37 38 39 39 38 38 37 36 36 34 29 22 15 9 6 7 12 13 10 4 360 356 349 344 345 344 336 329 319 309 304 305 307 307 307 307 307 307 304 296 287 279 274 274 278 280 278 272 265 258 252 247 244 241 237 235 232 229 226 224 222 219 217 215 214 213 213
58 58 57 55 55 55 55 55 54 52 53 53 51 49 47 45 44 43 41 40 40 39 38 37 37 38 39 40 39 37 34 29 26 29 34 36 34 27 21 15 7 360 358 357 352 350 343 329 318 314 312 309 305 300 299 303 305 302 298 292 286 281 277 275 271 269 267 264 259 253 248 244 242 240 237 233 231 228 226 225 223 223 222 222 221
67 67 64 62 61 61 61 62 60 58 57 56 55 54 52 49 49 49 47 44 43 41 39 37 36 35 37 39 38 37 35 33 31 31 34 38 40 40 39 39 36 30 24 24 25 21 11 357 344 334 327 322 317 309 300 297 300 304 303 300 297 294 289 282 276 272 269 266 264 260 255 251 248 245 241 237 234 231 229 227 227 226 225 226 226
75 75 72 68 67 66 68 68 66 63 62 61 60 59 58 55 54 54 54 52 50 48 46 44 41 38 38 39 39 38 36 35 34 34 33 33 34 33 34 40 49 54 55 54 50 43 31 10 351 341 338 337 334 329 319 305 295 292 290 289 290 290 288 283 279 275 272 269 266 263 259 256 253 251 248 245 241 237 233 232 231 229 228 227 227
77 76 75 72 68 67 69 70 69 67 67 66 63 61 60 59 58 58 58 58 55 51 49 49 47 43 42 43 44 44 43 42 41 40 39 38 38 36 32 31 35 42 49 57 60 57 48 35 24 13 3 357 353 351 348 342 330 317 307 298 292 286 280 278 276 273 270 268 265 262 261 258 255 253 251 248 245 242 239 237 235 232 230 229 229
74 73 73 72 68 66 66 66 64 63 64 63 62 62 61 60 60 60 61 60 57 52 50 50 49 47 46 46 46 47 47 46 44 44 43 42 41 41 40 39 38 38 38 42 48 49 44 38 37 34 26 18 13 8 2 358 353 345 334 324 316 307 297 289 282 276 271 267 264 261 260 258 255 253 253 249 246 245 243 241 238 236 233 232 232